Florala, AL

1:47 AM CDT on June 28, 2017 (GMT -0500)
Florala

Weather History for K0J4 - March, 2014

Change the Weather History Date:

Monday, March 24, 2014

  Actual Average (KCEW) Record (KCEW)
Temperature  
Mean Temperature 58 °F -  
Max Temperature 66 °F 73 °F 87 °F (1991)
Min Temperature 50 °F 45 °F 28 °F (2002)
Degree Days  
Heating Degree Days 7    
Growing Degree Days 8 (Base 50)    
Moisture  
Dew Point 45 °F    
Average Humidity 63    
Maximum Humidity 81    
Minimum Humidity 45    
Precipitation  
Precipitation 0.00 in - - ()
Sea Level Pressure  
Sea Level Pressure 30.06 in    
Wind  
Wind Speed 4 mph (NE)    
Max Wind Speed 13 mph    
Max Gust Speed 18 mph    
Visibility 10 miles    
Events      
Averages and records for this station are not official NWS values.
T = Trace of Precipitation, MM = Missing Value Source: NWS Daily Summary

Daily Weather History Graph

Daily Weather History Graph

Search for Another Location

Airport or City:

Trip Planner

Search our weather history database for the weather conditions in past years. The results will help you decide how hot, cold, wet, or windy it might be!

Date:

Astronomy

Mar. 24, 2014 Rise Set
Actual Time 6:44 AM CDT 6:59 PM CDT
Civil Twilight 6:19 AM CDT 7:23 PM CDT
Nautical Twilight 5:51 AM CDT 7:51 PM CDT
Astronomical Twilight 5:23 AM CDT 8:20 PM CDT
Moon 1:52 AM CDT (3/24) 12:45 PM CDT (3/24)
Length of Visible Light 13h 03m
Length of Day
12h 15m
Last Quarter, 43% of the Moon is Illuminated
Mar 24
Last Quarter
Mar 30
New
Apr 7
First Quarter
Apr 15
Full
Apr 22
Last Quarter

Hourly Weather History & Observations

Time (CDT) Temp. Dew Point Humidity Pressure Visibility Wind Dir Wind Speed Gust Speed Precip Events Conditions
12:58 AM 54.0 °F 46.9 °F 77% 30.13 in 10.0 mi NE 3.5 mph - N/A   Scattered Clouds
1:58 AM 54.0 °F 46.0 °F 75% 30.14 in 10.0 mi Calm Calm - N/A   Clear
2:58 AM 53.1 °F 46.0 °F 77% 30.10 in 10.0 mi North 5.8 mph - N/A   Scattered Clouds
3:58 AM 52.0 °F 42.1 °F 69% 30.11 in 10.0 mi NNE 6.9 mph - N/A   Overcast
4:58 AM 52.0 °F 39.9 °F 63% 30.12 in 10.0 mi NNE 5.8 mph - N/A   Overcast
5:58 AM 51.1 °F 39.0 °F 63% 30.12 in 10.0 mi NNE 5.8 mph - N/A   Overcast
6:58 AM 50.0 °F 39.0 °F 66% 30.13 in 10.0 mi NNE 6.9 mph - N/A   Mostly Cloudy
7:58 AM 51.1 °F 39.0 °F 63% 30.15 in 10.0 mi NNE 9.2 mph - N/A   Scattered Clouds
8:58 AM 55.0 °F 37.9 °F 53% 30.16 in 10.0 mi NNE 12.7 mph - N/A   Clear
9:58 AM 57.9 °F 39.9 °F 51% 30.14 in 10.0 mi ENE 10.4 mph 18.4 mph N/A   Partly Cloudy
10:58 AM 61.0 °F 41.0 °F 48% 30.14 in 10.0 mi ENE 9.2 mph 17.3 mph N/A   Clear
11:58 AM 63.0 °F 43.0 °F 48% 30.12 in 10.0 mi Variable 6.9 mph - N/A   Clear
12:58 PM 64.0 °F 43.0 °F 46% 30.08 in 10.0 mi ENE 3.5 mph - N/A   Clear
1:58 PM 64.9 °F 44.1 °F 47% 30.05 in 10.0 mi Variable 3.5 mph - N/A   Mostly Cloudy
2:58 PM 66.9 °F - N/A% 30.01 in 10.0 mi SE 5.8 mph - N/A   Mostly Cloudy
3:58 PM 66.9 °F 45.0 °F 45% 29.99 in 10.0 mi ESE 4.6 mph - N/A   Overcast
4:58 PM 64.9 °F 46.9 °F 52% 29.98 in 10.0 mi SE 3.5 mph - N/A   Overcast
5:58 PM 64.9 °F 46.9 °F 52% 29.97 in 10.0 mi Calm Calm - N/A   Mostly Cloudy
6:58 PM 61.0 °F 51.1 °F 70% 29.98 in 10.0 mi Calm Calm - N/A   Clear
7:58 PM 59.0 °F 51.1 °F 75% 29.99 in 10.0 mi Calm Calm - 0.00 in   Overcast
8:58 PM 57.9 °F 52.0 °F 81% 29.98 in 10.0 mi Calm Calm - N/A   Overcast
9:58 PM 57.0 °F 50.0 °F 77% 29.98 in 10.0 mi Calm Calm - 0.00 in   Mostly Cloudy
10:58 PM 57.0 °F 50.0 °F 77% 29.98 in 10.0 mi Calm Calm - 0.00 in   Mostly Cloudy
11:58 PM 55.9 °F 48.9 °F 77% 29.99 in 10.0 mi Calm Calm - N/A   Overcast